World > North America > United States > Texas > Fritch   City of Fritch, TX

Fritch, TX Hourly Weather Updates

Feedback E-mail the Weather

Quick Clicks

Fritch, TX Weather Maps

°F °C°F °C
Fritch Weather Map
UTC Time: 4/22/2024, 11:59
Your Time:

Fritch, TX Regional Weather

Expires:202404221200;;180819
ASUS44 KSJT 221110
RWRSJT
WEST CENTRAL TEXAS REGIONAL WEATHER ROUNDUP
NATIONAL WEATHER SERVICE SAN ANGELO TX
600 AM CDT MON APR 22 2024

NOTE: "FAIR" INDICATES FEW OR NO CLOUDS BELOW 12,000 FEET WITH NO
SIGNIFICANT WEATHER AND/OR OBSTRUCTIONS TO VISIBILITY.


TXZ001-004-007-008-010-012-014-016-OKZ002-221200-
TEXAS PANHANDLE/OKLAHOMA PANHANDLE
  
CITY           SKY/WX    TMP DP  RH WIND       PRES   REMARKS
AMARILLO       CLEAR     43  38  82 SW17      30.15F WCI  35 TC   6   
BORGER         CLEAR     48  38  68 S17G28    30.14F TC   9           
CANADIAN       CLEAR     48  37  65 SW12      30.14F TC   9           
DALHART        CLEAR     41  36  82 SW16      30.09F WCI  33 TC   5   
DUMAS          CLEAR     43  36  76 S15       30.10F WCI  35 TC   6   
GUYMON         NOT AVBL                                               
HEREFORD       CLEAR     43  38  84 S12       30.17F WCI  37 TC   6   
PAMPA          CLEAR     43  38  84 S13       30.15F WCI  36 TC   6   
PERRYTON       CLEAR      2  -4  72 S13       30.10F WCI -15 TC -16   
$$


SKY/WX - Weather  TMP - Temperature  DP - Dew Point  RH - Humidity
WIND - Wind Direction/Speed PRES - Barometric Pressure VSB - Visibility
WCI - Wind Chill Index E13G22 Wind - East Wind 13 mph/Gusts of 22 mph

Trending Headlines

Trending Entertainment Headlines

Fritch Radar Loop

Use the map search tool if you want to place a location marker on the radar map...

Fritch Quick Facts

National Two Day Weather Forecast


E-mail the Fritch Weather Forecast

Voice your opinion or tell us about page issues...